Meteo Giornale » Osservazioni meteo Canada » Peterborough
ore: 16:46 - Osservazioni Meteo Peterborough
Lat. 44° 14' N Lon. 78° 22' W Alt. 191 metri s.l.m.
20 °C
Coperto
Temp. 24 Ore
16 °C
21 °C
Sud/Sud-Est
11.1 Km/h
Dew point 19 °C
Umidità 93 %
Visibilità 14 Km
Il sole sorge alle ore 06:35
Il sole tramonta alle ore 19:51
| Data e Ora | Cielo e Fenomeni | T °C | DP °C | Um. % | Pres. hPa | Vis. km | Vento km/h | |
|---|---|---|---|---|---|---|---|---|
| Oggi h: 16:46 | Coperto | 20 | 19 | 93 | 1016 | 14 | S/SE 11.1 | |
| Oggi h: 16:28 | Pioggia | 21 | 20 | 94 | 1016 | 14 | S/SE 9.3 | |
| Oggi h: 16:06 | Pioggia Foschia | 20 | 19 | 93 | 1016 | 10 | S 7.4 | |
| Oggi h: 16:02 | Pioggia Foschia | 20 | 19 | 93 | 1017 | 8 | S 7.4 | |
| Oggi h: 16:00 | Pioggia Foschia | 20 | 19 | 93 | 1017 | 10 | S/SE 7.4 | |
| Oggi h: 15:58 | Pioggia Foschia | 20 | 19 | 93 | 1017 | 10 | S/SE 7.4 | |
| Oggi h: 15:55 | Coperto | 20 | 19 | 93 | 1017 | 14 | S/SE 7.4 | |
| Oggi h: 15:46 | Pioggia | 21 | 19 | 88 | 1017 | 14 | N 5.5 | |
| Oggi h: 15:45 | Pioggia | 21 | 19 | 88 | 1017 | 14 | S/SE 7.4 | |
| Oggi h: 15:18 | Coperto | 21 | 19 | 88 | 1017 | 14 | S/SE 9.3 | |
| Oggi h: 15:00 | Coperto | 21 | 19 | 88 | 1017 | 14 | E/SE 7.4 | |
| Oggi h: 14:00 | Coperto | 21 | 19 | 88 | 1017 | 14 | S 11.1 | |
| Oggi h: 13:12 | Foschia | 20 | 19 | 93 | 1017 | 10 | SE 13 | |
| Oggi h: 13:03 | Foschia | 20 | 19 | 93 | 1018 | 8 | SE 11.1 | |
| Oggi h: 13:00 | Coperto | 20 | 19 | 93 | 1018 | 13 | SE 7.4 | |
| Oggi h: 12:57 | Coperto | 20 | 19 | 93 | 1018 | 13 | E/SE 7.4 | |
| Oggi h: 12:27 | Coperto | 20 | 19 | 93 | 1018 | 14 | S/SE 13 | |
| Oggi h: 12:16 | Coperto | 20 | 19 | 93 | 1018 | 14 | S/SE 16.7 | |
| Oggi h: 12:00 | Coperto | 21 | 20 | 94 | 1018 | 14 | S/SE 7.4 | |
| Oggi h: 11:48 | Coperto | 20 | 19 | 93 | 1018 | 11 | N 5.5 | |
| Oggi h: 11:39 | Foschia | 20 | 19 | 93 | 1018 | 10 | N 5.5 | |
| Oggi h: 11:05 | Coperto | 20 | 19 | 93 | 1018 | 11 | S/SE 7.4 | |
| Oggi h: 11:00 | Coperto | 20 | 19 | 93 | 1018 | 11 | N 5.5 | |
| Oggi h: 10:29 | Foschia | 20 | 19 | 93 | 1018 | 10 | SE 7.4 | |
| Oggi h: 10:08 | Foschia | 19 | 19 | 100 | 1018 | 5 | SE 9.3 | |
| Oggi h: 10:00 | Foschia | 19 | 19 | 100 | 1018 | 5 | S/SE 9.3 | |
| Oggi h: 09:54 | Foschia | 19 | 19 | 100 | 1018 | 5 | S/SE 9.3 | |
| Oggi h: 09:52 | Foschia | 19 | 19 | 100 | 1018 | 2 | S/SE 7.4 | |
| Oggi h: 09:43 | Foschia | 19 | 19 | 100 | 1018 | 2 | SE 7.4 | |
| Oggi h: 09:36 | Foschia | 19 | 19 | 100 | 1018 | 2 | SE 9.3 | |
| Oggi h: 09:35 | Foschia | 19 | 19 | 100 | 1018 | 2 | E/SE 9.3 | |
| Oggi h: 09:15 | Foschia | 19 | 19 | 100 | 1018 | 3 | N 3.7 | |
| Oggi h: 09:00 | Foschia | 19 | 18 | 93 | 1018 | 2 | N 3.7 | |
| Oggi h: 08:01 | Foschia | 18 | 18 | 100 | 1018 | 2 | N 0 | |
| Oggi h: 08:00 | Pioggia Foschia | 18 | 18 | 100 | 1018 | 2 | N 0 | |
| Oggi h: 07:54 | Pioggia Foschia | 18 | 18 | 100 | 1018 | 2 | N 0 | |
| Oggi h: 07:23 | Pioggia Foschia | 17 | 17 | 100 | 1018 | 2 | N 0 | |
| Oggi h: 07:22 | Pioggia Foschia | 17 | 17 | 100 | 1018 | 2 | N 0 | |
| Oggi h: 07:15 | Pioggia Foschia | 17 | 17 | 100 | 1018 | 2 | N 0 | |
| Oggi h: 07:00 | Pioggia Foschia | 17 | 17 | 100 | 1018 | 2 | N 3.7 | |
| Oggi h: 06:41 | Pioggia Foschia | 17 | 17 | 100 | 1018 | 2 | N 5.5 | |
| Oggi h: 06:36 | Pioggia Foschia | 17 | 17 | 100 | 1018 | 2 | N 3.7 | |
| Oggi h: 06:24 | Pioggia Foschia | 17 | 17 | 100 | 1018 | 2 | N 0 | |
| Oggi h: 06:03 | Pioggia Foschia | 17 | 17 | 100 | 1018 | 3 | N 3.7 | |
| Oggi h: 06:00 | Pioggia Foschia | 17 | 17 | 100 | 1018 | 2 | N 3.7 | |
| Oggi h: 05:56 | Pioggia Foschia | 17 | 17 | 100 | 1018 | 2 | N 0 | |
| Oggi h: 05:51 | Foschia | 17 | 17 | 100 | 1018 | 2 | N 0 | |
| Oggi h: 05:39 | Foschia | 17 | 17 | 100 | 1018 | 2 | N 0 | |
| Oggi h: 05:32 | Foschia | 17 | 17 | 100 | 1018 | 2 | N 0 | |
| Oggi h: 05:24 | Foschia | 17 | 17 | 100 | 1018 | 5 | N 0 | |
| Oggi h: 05:16 | Foschia | 17 | 17 | 100 | 1018 | 5 | N 0 | |
| Oggi h: 05:02 | Foschia | 17 | 17 | 100 | 1018 | 5 | N 5.5 | |
| Oggi h: 05:00 | Foschia | 17 | 17 | 100 | 1018 | 2 | N 3.7 | |
| Oggi h: 04:50 | Foschia | 17 | 17 | 100 | 1018 | 2 | N 3.7 | |
| Oggi h: 04:00 | Foschia | 17 | 17 | 100 | 1018 | 5 | N 0 | |
| Oggi h: 03:00 | Foschia | 17 | 17 | 100 | 1019 | 6 | N 0 | |
| Oggi h: 02:00 | Foschia | 17 | 17 | 100 | 1019 | 8 | N 5.5 | |
| Oggi h: 01:28 | Foschia | 17 | 16 | 93 | 1019 | 8 | N 0 | |
| Oggi h: 01:00 | Foschia | 17 | 17 | 100 | 1018 | 10 | N 0 | |
| Oggi h: 00:00 | Foschia | 17 | 17 | 100 | 1019 | 10 | N 0 | |
| Ieri h: 23:54 | Foschia | 17 | 17 | 100 | 1019 | 10 | N 0 | |
| Ieri h: 23:42 | Foschia | 17 | 17 | 100 | 1019 | 8 | N 3.7 | |
| Ieri h: 23:33 | Foschia | 17 | 17 | 100 | 1019 | 10 | N 0 | |
| Ieri h: 23:00 | Foschia | 17 | 17 | 100 | 1019 | 5 | N 0 | |
| Ieri h: 22:46 | Foschia | 17 | 17 | 100 | 1019 | 5 | S/SO 9.3 | |
| Ieri h: 22:38 | Foschia | 16 | 16 | 100 | 1019 | 2 | N 5.5 | |
| Ieri h: 22:29 | Foschia | 16 | 16 | 100 | 1019 | 2 | N 5.5 | |
| Ieri h: 22:17 | Foschia | 17 | 17 | 100 | 1019 | 5 | N 0 | |
| Ieri h: 22:08 | Foschia | 16 | 16 | 100 | 1019 | 2 | N 3.7 | |
| Ieri h: 22:00 | Foschia | 17 | 16 | 93 | 1019 | 6 | N 5.5 | |
| Ieri h: 21:17 | Foschia | 17 | 17 | 100 | 1019 | 8 | N 5.5 | |
| Ieri h: 21:07 | Foschia | 18 | 17 | 93 | 1019 | 10 | N 3.7 | |
| Ieri h: 21:00 | Foschia | 17 | 17 | 100 | 1019 | 8 | N 5.5 | |
| Ieri h: 20:56 | Foschia | 18 | 17 | 93 | 1019 | 8 | N 3.7 | |
| Ieri h: 20:37 | Sereno | 18 | 17 | 93 | 1018 | 11 | N 5.5 | |
| Ieri h: 20:35 | Foschia | 18 | 17 | 93 | 1018 | 5 | N 5.5 | |
| Ieri h: 20:32 | Foschia | 18 | 17 | 93 | 1018 | 2 | N 3.7 | |
| Ieri h: 20:19 | Foschia | 18 | 17 | 93 | 1018 | 2 | S 7.4 | |
| Ieri h: 20:16 | Foschia | 18 | 17 | 93 | 1018 | 2 | S 7.4 | |
| Ieri h: 20:12 | Foschia | 19 | 17 | 88 | 1018 | 6 | S 7.4 | |
| Ieri h: 20:00 | Poco Nuvoloso | 19 | 18 | 93 | 1018 | 14 | N 3.7 | |
| Ieri h: 19:00 | Poco Nuvoloso | 21 | 18 | 82 | 1018 | 14 | S/SO 9.3 | |
| Ieri h: 18:00 | Nuvoloso | 21 | 18 | 82 | 1017 | 14 | S 14.8 | |



